Date,TemperatureHighF,TemperatureAvgF,TemperatureLowF,DewpointHighF,DewpointAvgF,DewpointLowF,HumidityHigh,HumidityAvg,HumidityLow,PressureMaxIn,PressureMinIn,WindSpeedMaxMPH,WindSpeedAvgMPH,GustSpeedMaxMPH,PrecipitationSumIn
2013-1-1,45,40,34,31,28,25,72,64,56,30.07,29.95,10,2,11,0.06
2013-1-2,38,32,25,28,20,15,74,60,44,30.28,30.05,16,2,16,0.00
2013-1-3,39,29,20,21,19,17,87,68,44,30.31,30.21,10,1,11,0.00
2013-1-4,42,34,24,24,22,19,82,63,46,30.26,30.15,20,2,22,0.00
2013-1-5,43,36,31,30,24,21,76,62,47,30.42,30.18,11,1,12,0.00
2013-1-6,52,42,28,34,30,27,95,66,40,30.25,30.05,16,1,18,0.06
2013-1-7,46,40,26,30,27,22,85,61,47,30.48,30.18,15,2,17,0.00
2013-1-8,53,37,23,35,29,20,93,75,47,30.48,30.42,12,1,14,0.00
2013-1-9,51,40,27,40,34,25,94,79,53,30.44,30.26,14,1,14,0.00
2013-1-10,53,45,36,33,29,26,72,55,39,30.65,30.40,11,1,13,0.00
2013-1-11,46,40,34,41,35,29,95,84,71,30.56,30.14,6,0,7,0.15
2013-1-12,57,46,42,48,42,40,95,87,70,30.22,30.15,6,0,6,0.00
2013-1-13,49,45,40,48,44,38,95,95,92,30.20,30.03,8,0,8,0.01
2013-1-14,57,50,40,54,44,34,95,82,56,30.35,30.00,14,2,15,0.11
2013-1-15,41,39,35,39,37,33,95,93,89,30.39,30.20,10,2,11,0.74
2013-1-16,41,38,34,39,36,33,95,95,91,30.21,29.88,17,1,20,0.68
2013-1-17,44,41,38,39,34,29,95,77,61,30.18,30.02,11,1,11,0.01
2013-1-18,38,33,25,31,20,12,79,59,39,30.56,30.07,20,3,21,0.00
2013-1-19,49,38,30,28,25,18,76,61,43,30.47,30.00,16,5,18,0.00
2013-1-20,58,45,35,33,24,13,67,46,22,30.14,29.85,22,4,24,0.00
2013-1-21,42,34,29,31,21,14,69,58,46,30.16,29.86,22,3,23,0.00
2013-1-22,29,21,16,15,3,-1,58,45,36,30.35,29.96,23,5,25,0.00
2013-1-23,25,19,12,7,4,2,67,50,39,30.41,30.21,17,2,17,0.00
2013-1-24,26,20,12,16,10,4,89,67,42,30.56,30.17,21,2,24,0.00
2013-1-25,24,17,10,18,10,4,91,74,52,30.57,30.17,11,0,11,0.00
2013-1-26,32,24,16,21,19,14,90,78,59,30.52,30.17,13,1,14,0.01
2013-1-27,38,25,14,23,19,-95,94,78,50,30.69,30.51,8,0,8,0.05
2013-1-28,40,34,26,36,31,23,95,88,76,30.57,30.09,13,2,14,0.18
2013-1-29,65,47,31,50,41,30,96,82,56,30.20,30.06,10,1,10,0.03
2013-1-30,69,57,45,58,52,42,94,84,65,30.06,29.29,23,4,25,0.42
2013-1-31,60,43,26,57,29,14,93,58,37,29.98,29.20,32,6,32,0.11